RH
42 25 13 6 7 8 4 2 1 2 3 4 4 3 4 3 4 3 4 3 3 3 2 2 2 2 3 4 6 7 7 6 6 6 6 6 6 6 6 6 6 6 7 7 7 8 9 9 11 10 9 8 8 11 12 13 12 12 14 15 14 16 21 26 29 32 33 34 35 36 35 33 31 27 24 21 14 7 5 6 8 11 13 16 18 22 25 26
35 31 24 10 7 7 2 2 2 3 4 4 3 4 4 3 4 3 3 3 3 2 2 2 3 4 5 8 10 7 6 6 6 6 7 7 7 7 7 7 7 7 6 6 5 5 6 6 8 8 8 8 9 11 12 13 14 13 13 11 10 11 13 16 20 24 28 31 34 36 35 33 29 23 18 13 7 4 5 6 9 13 15 16 19 24 28 30
20 23 22 11 7 4 1 2 2 4 4 3 4 4 4 4 4 3 3 3 3 3 3 4 5 6 7 10 12 8 6 7 6 6 6 6 6 6 7 7 6 6 4 3 3 3 3 4 6 7 9 9 10 12 13 13 14 16 16 15 14 14 15 16 19 25 31 33 33 31 29 24 18 12 9 6 5 6 6 7 10 14 16 18 19 23 28 31
13 12 10 8 6 2 2 2 3 4 3 4 4 3 4 4 4 4 4 4 4 5 6 7 7 7 6 9 11 11 9 7 5 4 4 3 4 4 5 4 4 3 2 2 2 2 3 4 5 7 9 10 11 12 14 14 14 14 15 16 15 15 19 21 24 28 30 29 23 18 13 10 7 6 5 6 6 5 5 6 9 12 14 16 18 22 25 28
11 8 6 6 4 1 2 3 4 4 4 4 3 4 4 5 6 7 6 6 7 7 7 7 6 7 6 7 7 9 10 8 4 3 3 2 3 3 2 2 2 2 2 2 2 2 3 4 5 7 9 10 10 10 12 13 13 12 11 12 11 11 15 18 19 20 19 16 10 6 6 5 5 5 6 5 5 5 6 7 8 10 12 14 17 20 23 24
8 7 7 5 2 2 3 3 4 4 4 4 4 5 6 8 8 8 8 7 8 7 7 7 7 7 7 6 4 4 6 5 3 3 3 3 2 2 2 2 2 2 2 2 2 3 3 3 4 6 7 7 7 7 8 8 8 8 6 6 6 7 8 8 8 7 7 6 4 5 6 7 9 9 9 7 7 8 9 10 11 11 12 12 14 18 21 23
6 7 6 4 3 2 3 4 4 4 4 4 5 7 7 8 8 8 8 7 8 8 8 8 7 7 5 4 2 2 3 3 3 3 3 3 2 2 2 2 2 2 2 2 3 3 3 3 4 4 4 5 5 5 5 4 4 4 4 4 4 4 4 4 3 4 4 5 6 8 9 13 15 14 12 10 9 10 11 13 14 13 11 11 12 16 20 23
6 6 4 4 2 2 4 4 4 4 4 5 7 8 7 8 8 8 8 8 8 7 7 7 6 5 3 2 2 2 3 3 3 3 3 3 3 3 2 3 3 3 3 3 3 3 3 3 3 3 4 4 4 4 3 3 3 4 5 5 4 3 4 4 5 6 7 8 9 9 12 15 15 13 10 7 8 10 11 12 12 11 10 11 13 15 17 21
6 4 4 4 2 3 3 4 4 5 6 7 8 8 8 8 8 8 8 8 8 7 5 4 4 3 3 2 3 3 3 3 3 3 3 3 3 3 3 3 3 3 3 3 3 3 3 3 3 3 3 4 4 4 4 4 4 5 6 6 6 6 6 7 8 10 11 11 12 11 12 13 11 11 8 6 9 10 10 10 9 9 10 12 14 16 19 22
8 3 4 2 2 3 3 5 5 6 8 8 8 8 8 8 8 8 8 8 8 6 3 2 3 2 2 3 3 4 4 3 3 3 3 3 3 3 3 3 3 4 3 3 4 3 3 3 3 3 3 4 4 4 5 5 6 7 8 9 9 10 10 10 11 12 13 14 13 12 11 10 10 11 8 7 10 9 9 9 9 10 10 11 14 18 24 29
11 4 3 2 3 3 4 5 6 8 8 8 8 8 8 8 8 7 6 6 6 4 2 2 2 2 3 3 3 4 3 4 3 3 3 3 3 3 4 4 4 3 4 4 3 4 4 4 4 4 4 4 5 5 6 7 7 8 9 11 12 12 13 13 13 14 14 13 10 9 10 10 10 9 7 9 10 10 10 11 11 12 12 12 14 20 28 37
13 4 3 3 3 4 5 7 8 9 8 8 9 8 9 7 7 6 5 4 4 3 2 2 2 3 3 3 4 4 4 4 3 4 3 3 3 3 4 3 4 4 4 4 4 5 4 4 5 4 4 5 5 6 7 8 8 9 10 11 12 13 14 14 13 12 10 9 7 9 11 10 9 8 8 10 11 11 11 12 14 15 15 15 18 24 34 43
16 6 3 3 4 5 7 7 9 9 8 9 9 8 8 6 5 4 4 3 3 3 2 3 3 3 4 4 4 4 4 3 3 4 3 4 4 3 4 4 4 4 5 5 5 5 5 5 5 5 5 5 5 6 7 8 8 10 10 11 12 13 14 13 11 9 7 8 8 12 14 10 8 10 11 11 11 10 10 12 15 16 16 19 23 31 40 49
17 8 3 3 5 6 8 8 9 9 9 10 8 7 6 4 4 3 3 3 3 3 3 3 3 4 4 4 4 4 4 4 4 4 3 4 4 4 4 4 5 5 5 5 5 5 6 6 6 6 6 6 6 6 7 7 8 9 10 11 13 13 12 9 9 7 6 8 9 13 17 11 9 11 11 11 10 10 11 13 14 16 18 21 27 36 46 56
14 7 3 4 6 8 8 8 8 9 10 9 6 4 4 5 4 4 4 3 3 4 3 4 4 5 4 3 4 4 3 4 4 4 4 4 4 5 5 5 5 5 5 6 6 6 6 6 7 7 7 6 6 6 6 7 7 8 10 12 11 11 9 7 8 7 8 10 10 15 18 11 9 10 10 10 11 11 13 14 15 16 20 25 31 41 54 63
9 5 4 5 7 8 8 9 9 9 9 9 7 4 4 5 5 5 5 4 5 4 4 5 5 6 4 3 3 4 4 4 4 5 5 5 5 5 5 5 6 5 6 6 6 7 7 7 7 7 8 7 7 7 6 6 6 7 9 9 8 8 7 7 8 9 10 11 10 14 15 11 9 10 10 11 12 13 14 15 16 18 22 29 38 49 61 67
5 4 5 7 8 9 9 8 8 9 9 8 6 4 4 4 5 5 5 6 6 6 7 7 7 6 4 4 4 4 5 4 5 5 5 5 5 5 6 6 6 6 7 6 7 7 7 7 7 8 8 7 7 7 7 7 7 7 7 8 7 8 9 9 10 11 12 13 12 13 13 11 11 12 12 12 13 14 15 16 17 21 26 34 44 58 67 70
4 5 6 8 9 9 7 6 6 8 8 6 4 4 4 4 4 4 4 5 5 6 6 6 7 6 5 5 5 6 6 6 6 6 5 6 6 6 6 6 7 7 7 7 8 8 8 8 8 8 9 9 8 8 8 8 7 8 8 9 9 10 11 11 12 13 14 14 14 14 14 13 12 12 13 14 15 16 16 16 18 20 27 38 51 63 72 74
5 7 8 9 9 8 5 4 5 6 5 4 4 4 4 4 4 4 4 4 4 4 5 5 6 6 6 5 6 7 7 6 6 6 6 6 6 7 7 7 8 8 8 8 8 9 9 9 9 10 11 10 10 10 10 9 9 9 10 10 12 13 13 13 14 14 14 15 15 16 15 14 13 14 15 16 17 16 15 15 16 18 26 42 58 68 75 77
6 9 10 10 8 6 4 4 5 5 4 5 4 4 4 4 4 4 5 5 5 5 6 7 7 6 6 6 8 8 7 6 7 7 7 7 7 8 8 8 9 9 9 9 9 10 10 11 12 12 12 12 13 12 11 11 11 11 12 14 15 15 15 15 15 15 15 16 16 17 16 14 14 15 17 18 17 16 16 16 17 17 23 39 58 72 78 81
9 11 10 8 7 5 5 5 5 5 5 5 4 5 4 5 5 6 6 5 6 7 7 7 7 7 7 7 9 8 7 7 8 8 8 8 8 8 9 9 10 10 10 11 11 11 12 13 13 13 13 13 14 14 13 12 12 13 15 16 16 17 17 15 16 16 15 17 17 17 16 15 16 18 19 19 17 17 18 19 20 20 24 38 57 72 79 84
11 11 8 7 6 6 5 5 5 5 4 4 4 5 5 5 6 6 6 6 7 8 8 8 8 8 7 8 9 8 8 8 8 9 8 9 9 9 9 10 10 11 11 12 11 12 13 14 14 15 14 14 15 15 14 13 14 16 16 17 18 17 17 17 16 16 17 18 17 17 18 17 18 20 21 20 19 20 21 20 21 22 27 40 56 71 80 86
11 9 7 6 6 6 6 6 6 6 6 5 5 6 6 6 7 7 8 7 7 8 9 9 8 8 8 8 8 9 9 8 9 9 9 9 10 10 11 11 12 13 13 13 13 14 15 15 16 16 15 15 15 15 15 15 16 17 16 17 19 18 19 19 17 18 20 20 19 20 21 19 21 24 23 23 21 21 21 21 22 23 27 40 59 75 84 88
10 8 6 6 6 6 7 9 9 9 8 8 8 9 9 10 10 10 10 8 8 8 8 9 9 8 8 8 8 9 9 9 9 10 10 11 11 11 12 13 14 14 14 14 14 15 16 16 16 16 16 15 15 15 16 17 17 17 17 19 20 18 20 20 19 19 18 20 23 25 24 19 22 28 24 21 23 22 23 24 24 24 28 40 57 71 82 87
8 7 5 6 6 7 10 12 12 11 11 10 9 10 11 12 13 14 14 10 8 9 8 9 9 8 9 9 9 9 10 10 10 11 11 11 12 13 13 14 15 14 15 14 15 16 17 17 17 17 16 15 16 17 16 18 18 17 18 20 20 19 21 21 20 21 20 24 25 28 38 32 21 25 25 22 25 25 25 26 26 28 34 44 56 69 81 88
6 6 7 8 9 10 12 13 13 13 12 9 8 9 10 12 13 15 18 13 8 9 9 8 9 9 9 10 10 10 11 11 12 13 13 13 13 12 13 15 15 15 16 15 16 17 17 17 17 17 17 17 18 17 18 19 19 19 20 21 21 21 23 22 20 23 24 26 24 26 44 45 26 23 27 26 27 27 28 30 32 36 43 53 66 78 87 92
8 9 11 13 13 13 13 13 13 13 12 10 10 10 10 12 14 14 17 17 11 9 10 9 9 10 9 11 11 11 12 13 13 14 13 14 13 13 14 15 16 16 16 16 16 17 17 17 17 17 18 18 19 18 19 20 20 21 21 22 23 22 23 21 20 24 22 24 26 23 34 46 38 29 28 28 29 30 32 35 40 47 55 68 80 87 93 98
12 14 14 14 13 13 12 12 13 13 12 12 12 11 9 11 15 14 15 17 12 10 11 10 10 10 11 12 12 12 14 14 14 14 14 15 14 14 15 15 16 17 17 17 17 17 17 17 18 19 19 19 20 20 21 22 22 23 23 24 24 23 23 22 22 23 22 28 32 26 30 44 41 30 29 30 31 32 37 43 50 59 70 82 90 95 98 98
15 15 14 13 12 12 12 12 12 12 12 13 13 10 6 9 15 15 11 13 12 10 10 10 10 11 12 13 13 14 15 15 15 16 16 16 15 15 16 16 16 15 16 17 18 18 17 18 19 20 20 21 21 23 23 24 24 24 25 24 22 23 24 24 26 24 25 37 39 28 30 40 38 30 31 34 32 35 42 49 57 70 83 92 97 99 96 94
16 16 15 14 12 11 11 10 10 10 11 13 13 11 7 9 14 12 9 13 13 10 10 11 11 13 14 15 15 15 16 17 17 18 18 18 18 17 16 15 15 15 16 17 18 18 19 20 21 21 22 23 23 25 25 25 26 25 25 24 23 26 25 25 28 24 28 42 38 25 27 37 41 36 32 33 35 39 44 53 66 79 89 96 97 93 90 93
16 16 15 14 11 10 10 8 8 8 9 11 11 12 12 10 9 10 12 15 12 10 11 11 13 15 16 16 16 16 17 17 17 17 17 16 16 15 14 15 15 15 16 17 18 19 20 21 22 22 23 24 25 26 25 25 26 26 25 25 26 26 27 28 29 29 37 42 33 26 29 37 43 40 33 35 38 39 45 58 75 86 91 92 91 89 92 98
15 15 14 12 11 10 8 6 6 6 7 9 9 12 13 10 8 10 13 12 10 11 12 12 15 16 17 17 17 16 17 17 16 17 16 15 16 16 17 19 20 19 20 19 19 19 20 22 23 24 24 25 27 26 26 26 25 26 26 26 31 37 40 41 40 42 45 41 33 32 35 39 41 37 35 40 42 43 49 61 74 82 86 89 92 96 98 94
13 13 12 11 9 7 6 5 5 4 5 7 8 10 9 9 11 12 11 10 10 11 12 14 16 17 18 18 18 17 16 17 17 17 18 18 19 18 20 22 23 24 24 22 21 21 21 23 23 24 24 26 28 27 28 28 26 28 28 29 37 46 54 57 52 48 48 42 36 36 42 44 39 37 41 45 46 50 57 65 74 81 89 95 97 97 90 82
11 11 9 8 6 5 4 4 4 4 5 5 7 7 6 8 11 11 11 11 12 12 14 15 16 18 18 18 19 17 16 17 18 18 19 19 19 19 21 23 23 25 25 24 24 25 27 27 24 25 26 27 29 29 30 29 28 30 30 33 36 39 52 62 56 53 56 51 43 43 48 46 41 44 48 47 48 53 59 67 76 85 94 96 92 86 82 80
9 8 6 5 4 4 4 4 4 4 5 5 6 6 7 9 10 11 12 12 13 14 15 16 17 18 19 19 20 18 17 18 18 19 19 19 20 21 22 24 25 26 26 26 27 28 30 28 25 26 28 28 30 29 29 30 30 32 32 34 37 37 44 53 52 50 54 57 52 46 45 43 42 45 45 47 51 55 62 73 79 88 91 86 82 81 84 89
7 5 4 4 4 4 4 4 4 5 5 6 6 7 8 10 11 12 12 13 14 14 15 16 17 18 19 19 20 19 18 19 19 19 19 19 21 22 24 25 26 27 27 28 30 31 31 27 24 28 28 29 32 30 31 32 31 33 34 34 39 42 44 49 51 46 48 61 58 44 43 45 44 47 50 54 58 61 70 78 81 86 84 79 81 85 90 94
5 4 4 4 4 4 4 5 5 6 6 7 7 8 9 10 11 12 12 14 15 15 16 16 16 18 19 19 20 20 19 19 19 20 20 20 22 24 25 25 26 27 28 29 30 33 34 29 24 28 29 30 32 31 32 35 34 34 37 38 41 45 46 49 54 56 60 69 59 45 48 51 49 55 59 60 66 72 78 80 81 81 80 84 88 90 93 92
4 4 4 4 4 4 4 6 7 7 7 8 8 9 10 10 11 12 13 14 15 16 17 17 17 19 19 19 20 19 19 19 20 20 21 22 23 25 26 25 27 28 27 30 30 32 37 34 28 27 30 30 32 34 34 35 37 38 40 43 45 50 52 51 59 69 75 77 66 52 51 52 52 56 59 67 76 82 87 88 86 86 90 95 95 94 94 93
4 4 4 5 6 6 6 6 7 8 8 9 9 10 11 12 12 13 13 14 15 16 17 17 18 19 19 20 20 19 19 20 21 22 23 23 24 26 26 26 27 28 27 30 31 32 37 41 35 28 30 32 32 35 36 36 39 41 44 48 49 53 56 56 60 64 72 80 76 65 59 56 55 58 65 79 88 92 96 94 93 97 99 99 98 99 98 98
5 6 6 6 7 7 7 7 8 8 9 10 10 11 12 12 13 14 14 14 15 16 17 18 18 19 19 20 20 20 20 21 23 24 25 25 26 26 27 27 27 27 28 29 31 33 36 43 42 31 29 34 35 37 38 39 42 45 50 53 54 56 57 60 60 55 62 75 77 78 75 60 57 66 75 85 94 97 98 98 102 103 98 97 100 96 90 89
7 7 7 7 8 8 8 8 9 9 9 10 11 11 12 13 13 14 14 15 15 16 17 18 18 19 19 20 21 21 20 22 23 24 25 26 27 27 28 28 27 28 28 28 31 34 37 42 43 36 32 34 37 40 41 42 46 51 54 55 57 59 59 67 73 62 60 68 72 84 87 68 61 70 76 87 95 97 101 104 102 95 91 91 82 71 69 71
8 8 8 8 8 8 8 9 9 9 10 10 11 12 12 13 13 14 14 15 16 16 17 18 18 19 19 20 21 21 20 21 23 25 26 26 27 28 28 28 29 28 29 29 31 33 36 40 41 39 36 36 39 42 42 45 47 48 51 53 56 60 63 76 84 73 69 71 69 77 81 68 63 70 80 91 97 99 101 97 92 88 84 75 61 56 61 67
8 8 8 8 8 8 8 8 8 9 9 10 11 12 12 13 13 14 14 15 16 17 18 19 18 19 19 20 21 21 20 21 23 24 26 27 27 27 28 29 29 29 30 31 32 33 34 38 40 38 35 34 38 42 43 45 46 46 49 52 58 63 65 69 71 71 77 79 75 82 83 69 64 76 87 94 96 96 93 89 90 87 74 65 65 67 69 76
8 8 7 7 7 7 7 7 7 8 9 9 11 12 12 13 13 14 14 15 16 18 19 19 19 19 20 20 21 21 21 21 23 24 26 27 27 27 28 29 29 31 32 32 33 35 35 38 41 43 46 46 45 45 46 46 50 52 53 56 62 64 62 60 60 66 75 74 75 87 88 73 72 84 91 95 95 90 88 91 89 84 80 78 78 80 84 90
7 7 7 6 7 7 6 6 7 8 8 9 11 11 12 13 13 14 14 15 17 18 19 19 19 20 20 20 21 22 21 22 23 24 26 26 26 27 27 29 31 32 32 33 35 36 37 39 42 49 58 63 61 57 54 53 55 56 55 62 69 66 61 60 62 69 77 81 85 90 88 83 84 90 93 96 95 91 93 91 79 80 87 78 74 87 96 99
6 6 6 5 6 6 6 5 6 7 8 9 10 11 12 13 13 13 14 15 17 19 19 20 20 20 20 21 21 21 21 22 23 24 26 26 26 27 27 29 32 32 32 34 36 37 39 41 43 48 52 56 58 55 52 55 58 58 60 66 71 69 65 66 73 81 89 94 91 84 88 96 94 95 100 98 94 95 94 85 75 78 73 63 75 98 102 100
6 5 5 5 5 6 6 5 5 6 7 9 10 11 12 12 13 13 14 16 18 19 19 20 19 20 20 20 21 21 21 22 22 24 25 25 26 27 28 30 32 33 33 35 38 39 40 42 45 48 47 48 50 49 52 57 58 61 68 69 67 67 68 71 81 91 97 100 93 83 91 103 99 98 103 100 98 98 91 83 77 61 42 51 86 105 101 89
5 5 5 5 5 5 5 5 5 6 7 8 9 11 12 12 12 13 14 16 19 19 20 20 20 20 20 20 20 20 20 21 22 24 24 25 27 28 29 31 33 34 34 36 39 40 42 45 47 48 46 43 46 49 53 57 59 65 71 69 63 64 69 76 83 92 100 103 99 94 97 102 100 100 100 99 100 91 72 63 53 28 25 62 98 100 85 59
4 4 4 4 4 5 5 5 5 5 6 8 9 10 12 12 12 13 14 17 19 19 20 20 20 20 20 20 20 20 21 21 22 24 25 26 27 28 30 32 33 34 34 37 40 41 43 47 49 51 45 39 44 51 52 55 60 62 64 64 61 62 72 81 84 91 97 97 97 99 100 98 98 100 101 94 80 57 36 28 18 14 47 91 98 76 51 30
3 3 3 4 4 4 4 5 5 5 6 7 9 10 11 12 12 13 14 17 19 20 20 20 20 20 20 21 21 21 22 23 24 25 26 27 28 29 30 32 33 33 34 37 40 43 46 48 49 53 47 38 44 53 52 53 55 55 58 61 61 64 73 80 82 88 94 96 98 99 100 99 97 99 95 69 37 20 18 17 13 33 77 95 70 42 29 25
3 3 3 3 4 4 4 5 5 6 6 7 9 10 11 12 12 13 15 18 20 19 20 20 20 20 21 21 22 22 23 24 25 26 26 28 28 29 31 32 33 33 35 38 42 44 48 49 49 54 54 44 45 53 51 46 48 52 55 59 65 72 76 77 83 93 99 101 100 98 101 101 98 95 72 32 17 31 36 24 25 55 84 74 42 29 29 29
2 3 2 3 3 3 4 4 5 6 6 7 8 10 12 12 11 13 16 18 20 19 20 20 20 21 21 21 22 23 24 25 25 26 27 28 28 29 31 32 33 34 36 40 44 45 49 50 48 54 58 49 47 55 51 43 50 57 57 61 70 76 79 82 89 96 99 99 99 100 100 95 92 85 50 18 34 59 47 26 36 63 71 49 30 30 31 30
Wind_Speed
12 7 5 5 5 4 3 1 1 2 2 3 5 6 7 6 6 6 5 5 5 5 5 5 6 6 6 6 7 7 8 8 7 7 7 8 8 8 7 7 7 7 6 6 6 6 6 7 7 9 10 10 10 11 12 13 13 15 16 19 20 21 22 21 20 20 21 21 20 19 20 21 22 23 25 26 26 25 24 23 22 22 21 22 22 23 24 24
12 9 5 4 4 3 2 2 3 3 4 5 6 6 6 6 6 6 6 6 5 5 5 5 6 6 7 7 7 8 8 7 7 8 8 8 7 7 7 7 7 7 7 7 7 7 6 6 6 8 9 10 10 11 12 13 13 14 16 19 19 20 20 20 20 21 21 21 21 21 23 24 24 25 26 26 25 23 22 21 21 20 20 21 22 23 24 24
12 11 8 5 4 3 3 3 4 4 5 6 6 6 6 6 7 7 6 5 5 5 5 6 6 7 7 7 6 7 7 7 8 8 7 7 6 6 6 6 7 7 8 9 8 8 7 6 6 7 8 9 10 12 13 14 14 15 17 19 19 19 20 20 21 21 21 22 23 24 25 25 24 25 25 24 24 23 21 20 19 20 20 20 22 23 23 23
11 9 8 5 3 3 4 4 5 5 6 6 7 7 7 7 7 7 6 6 6 6 6 6 6 7 8 8 6 6 6 7 8 7 6 6 7 7 7 7 8 8 9 9 8 8 7 7 6 7 8 10 11 13 14 15 16 17 18 18 19 19 19 20 21 22 23 24 25 24 24 24 23 24 23 23 24 22 20 20 20 20 21 21 22 23 23 24
9 8 6 5 4 4 4 5 6 6 7 7 7 7 7 7 7 7 8 8 8 7 7 7 6 7 8 9 7 6 6 5 7 7 7 9 9 9 9 9 9 8 8 8 8 8 7 7 7 7 8 10 11 13 14 15 16 17 17 18 18 19 19 20 21 23 24 25 24 24 23 23 24 24 24 24 24 23 21 21 21 21 21 22 22 23 24 25
8 7 5 4 4 4 5 6 6 7 7 8 8 8 8 8 8 9 9 9 8 8 7 7 7 7 8 8 7 8 7 6 7 8 9 10 9 9 8 8 8 9 8 8 9 8 8 8 7 7 8 9 10 12 13 13 14 15 16 17 18 18 19 20 21 22 22 23 23 24 25 25 26 27 27 27 25 24 24 22 21 21 21 22 23 24 25 26
8 6 5 4 4 4 5 6 7 7 7 7 7 8 8 9 9 9 8 8 8 8 8 8 8 8 8 7 7 10 11 8 8 8 9 8 8 8 8 8 9 10 10 10 10 10 9 8 8 9 10 10 11 12 12 13 14 16 17 17 18 19 20 20 20 21 22 24 25 27 27 27 28 29 30 29 26 26 25 23 23 23 24 24 24 24 26 27
7 5 4 3 4 5 5 6 6 7 7 7 8 8 9 9 9 8 8 8 8 8 8 8 8 7 7 8 9 11 11 9 7 7 7 7 8 8 8 8 10 11 12 12 12 12 11 11 11 11 12 12 13 13 13 15 16 17 18 19 19 20 21 21 22 22 24 25 26 28 28 28 29 30 31 29 26 26 26 25 25 26 26 25 24 25 26 28
7 5 4 4 4 5 5 5 5 6 6 8 9 9 9 9 8 8 8 8 8 8 8 9 9 8 8 9 10 10 9 7 6 7 7 8 8 9 10 11 12 12 12 13 13 13 13 13 14 14 14 14 14 14 14 16 17 18 19 20 20 21 22 22 23 24 25 26 27 29 29 29 30 31 32 28 25 26 27 27 26 26 27 27 28 28 29 29
6 5 4 4 5 5 4 4 5 5 7 8 8 8 9 8 8 8 7 7 7 7 8 9 10 9 8 9 8 8 8 7 7 8 9 9 9 10 12 12 12 12 13 13 13 13 13 14 14 15 15 15 15 15 16 17 17 18 19 20 20 22 22 23 24 25 27 28 29 30 30 31 31 32 31 27 27 29 29 28 28 28 29 30 31 31 31 31
6 5 4 4 5 4 4 4 4 6 8 8 8 8 7 7 7 8 7 7 7 8 9 10 10 8 8 9 9 8 8 7 8 8 9 9 10 11 11 12 12 13 13 13 14 14 14 14 14 15 15 15 15 17 17 17 17 19 20 20 21 23 24 24 24 25 27 28 29 31 32 33 33 33 31 28 31 33 32 31 30 30 31 33 33 32 33 32
5 4 4 4 4 4 4 5 6 7 7 7 7 7 7 6 6 7 8 8 8 9 10 10 9 8 9 10 9 8 7 7 8 9 9 9 10 11 11 11 12 13 14 14 14 15 15 15 14 15 14 14 16 17 17 17 19 20 21 22 22 24 25 24 23 25 27 28 30 31 33 37 36 33 32 31 34 34 35 34 32 32 34 34 34 33 33 34
5 4 4 4 3 4 5 6 7 7 7 7 7 7 7 7 7 8 9 9 9 10 10 10 9 8 9 9 8 7 7 7 8 8 9 10 11 11 12 12 13 13 14 14 15 14 14 14 14 14 13 14 16 16 17 19 20 21 22 24 24 25 25 23 23 26 28 30 31 30 33 41 38 33 32 34 37 38 38 38 35 37 38 37 35 34 34 35
4 4 4 3 3 4 5 7 7 7 7 7 7 7 8 9 9 10 10 10 10 11 10 10 9 8 7 6 6 6 7 7 8 9 10 11 12 13 13 13 13 13 14 15 15 14 13 13 14 14 13 15 16 17 18 19 20 21 23 23 23 25 26 24 24 27 28 29 30 28 32 42 40 33 33 36 39 41 42 41 40 41 42 40 36 34 35 35
4 4 3 3 4 5 6 7 7 7 8 8 8 9 10 10 10 10 10 10 10 10 10 9 8 7 5 4 5 7 8 9 10 11 11 12 13 14 14 14 14 14 15 15 15 15 15 14 15 14 14 15 17 18 19 19 20 21 21 22 22 25 28 28 26 27 29 29 30 27 30 42 42 35 34 38 41 43 44 44 44 45 44 40 36 34 34 36
4 3 3 3 5 6 7 7 7 8 8 8 9 10 11 11 11 11 10 10 9 8 8 7 7 6 5 5 8 9 9 9 10 11 11 12 12 13 14 15 15 15 15 16 16 16 16 16 15 15 14 16 17 19 20 20 20 19 20 23 25 27 31 33 30 29 31 32 32 30 32 43 44 38 38 40 43 44 45 45 44 44 43 39 35 34 34 37
4 4 4 4 6 6 6 6 6 7 7 8 9 10 12 11 11 11 10 9 8 7 6 6 6 5 6 8 8 8 7 8 10 11 11 11 12 13 14 15 15 16 16 16 16 16 16 15 14 14 15 16 17 18 20 21 21 22 23 26 28 30 33 36 35 32 33 35 35 34 36 44 46 43 43 43 44 44 44 42 40 39 38 35 33 33 35 38
5 5 5 6 7 7 6 6 7 8 9 10 11 12 12 12 11 10 8 8 6 6 6 7 6 5 6 8 8 8 8 9 10 11 11 12 13 13 13 14 15 15 15 15 16 16 16 14 13 13 16 17 17 18 18 19 22 24 26 29 32 33 34 36 37 35 36 37 37 35 38 46 49 47 46 43 40 40 39 37 36 36 35 32 31 33 35 38
6 6 7 8 8 7 8 9 11 12 12 12 12 12 13 13 11 10 9 8 6 7 8 9 8 8 9 9 9 10 10 9 10 13 14 14 14 14 13 14 14 15 15 16 16 16 16 14 13 15 19 19 18 19 19 20 22 23 26 30 32 36 37 37 36 35 36 40 42 39 42 50 52 50 45 40 36 34 32 31 32 34 35 31 29 33 35 38
7 8 8 8 8 9 10 12 13 13 12 12 12 11 12 11 9 9 8 6 6 10 12 12 11 12 11 11 11 11 11 12 14 16 15 14 14 15 14 13 15 14 15 17 17 17 16 13 14 19 21 21 21 21 21 22 23 25 27 30 33 36 39 39 36 35 36 43 47 45 48 55 54 50 43 35 29 26 24 26 29 32 34 32 29 32 35 37
9 9 9 9 9 11 12 12 11 11 11 12 12 11 10 9 8 8 7 6 9 13 14 14 14 13 12 11 10 11 14 15 16 16 15 14 14 15 14 14 16 15 17 19 17 16 15 13 18 22 22 22 22 22 23 23 24 26 28 31 35 36 40 40 36 37 40 43 49 50 53 57 52 46 38 25 20 20 22 25 28 31 32 29 27 30 35 37
10 10 10 11 12 12 12 12 12 12 11 11 12 11 9 9 9 10 9 10 13 14 15 16 14 13 14 12 9 12 15 12 11 13 14 13 14 14 15 16 16 17 19 19 17 16 15 17 23 23 22 23 22 22 24 24 25 27 29 32 35 35 39 44 42 42 43 44 51 51 52 55 50 39 24 16 19 22 24 27 29 31 31 27 25 29 34 37
11 11 12 13 13 13 12 12 12 11 11 10 10 9 8 7 8 11 12 13 14 14 15 15 14 14 14 13 11 10 12 12 11 13 13 13 15 15 15 16 16 19 20 19 19 18 18 21 24 23 23 23 22 23 24 25 26 27 30 32 34 34 37 43 47 47 45 46 49 46 47 53 43 26 17 18 26 28 27 30 30 30 31 27 25 27 33 38
12 13 14 13 12 11 11 10 8 8 7 6 5 4 2 2 3 7 10 13 15 15 14 14 14 15 14 14 13 9 11 15 15 15 16 16 18 18 19 19 19 22 22 20 20 19 20 22 23 23 23 22 22 23 24 26 28 28 29 29 32 37 36 40 45 48 50 47 40 35 40 48 36 21 26 32 30 29 29 30 29 28 29 26 26 28 34 39
13 13 12 11 10 9 8 7 6 5 3 2 1 1 1 2 2 3 5 9 15 16 15 14 15 16 15 15 14 10 11 16 17 17 18 19 20 22 23 22 22 24 22 21 20 18 21 23 22 21 20 21 22 23 24 26 30 31 29 28 34 38 37 41 43 47 50 41 33 31 26 32 38 31 32 32 27 29 30 28 28 27 26 26 27 30 35 39
13 12 11 10 9 8 7 6 4 3 2 1 1 1 1 2 2 2 2 4 11 15 15 15 14 16 15 14 15 12 12 16 18 19 19 20 21 23 24 23 24 24 22 22 19 19 24 24 21 19 18 21 22 23 25 26 31 33 31 32 35 37 39 42 41 40 41 34 35 36 18 20 39 38 29 27 27 30 28 26 27 25 24 25 26 31 36 40
13 12 10 9 7 6 5 4 3 2 1 0 1 1 2 3 2 2 1 1 8 14 16 15 14 15 15 15 17 15 14 16 18 18 18 19 21 23 22 22 25 24 23 24 22 22 24 22 18 17 20 23 22 23 26 26 30 32 33 33 35 39 40 39 37 36 37 38 39 36 19 18 28 26 24 28 29 28 27 27 27 25 24 24 26 32 37 38
13 11 9 7 5 4 4 4 2 2 1 0 1 2 3 3 2 2 2 2 7 12 13 15 14 14 16 16 16 16 15 17 17 18 19 19 20 22 21 21 24 25 24 26 25 24 24 20 17 19 22 22 21 23 25 25 29 31 32 34 37 39 37 35 34 30 30 32 30 25 15 11 18 22 24 27 27 26 28 29 27 23 21 23 28 32 34 32
13 10 7 4 3 3 3 3 3 2 1 1 2 3 4 2 0 2 4 3 6 10 11 13 13 13 15 15 15 14 16 17 17 19 20 20 21 22 21 20 24 26 24 26 26 23 22 17 16 22 22 19 21 23 24 25 27 30 32 36 38 36 37 36 26 22 23 18 13 15 12 6 19 31 25 21 25 28 29 28 24 21 21 24 28 31 29 27
12 8 4 1 2 4 4 4 3 2 1 1 1 3 5 4 1 2 4 2 5 8 9 11 12 12 12 13 13 13 16 17 17 18 19 19 20 22 21 18 21 22 20 23 23 21 19 13 16 24 21 20 24 24 26 26 26 30 33 37 40 39 42 34 19 18 17 9 7 14 17 10 13 25 26 26 31 31 29 26 22 21 23 26 28 27 26 26
10 6 2 2 3 4 4 4 4 3 2 1 1 1 4 5 3 4 3 1 4 7 8 9 10 11 12 14 14 14 16 18 19 19 19 19 18 20 20 20 24 23 23 29 28 24 19 11 18 26 21 23 29 29 30 29 28 31 30 34 39 40 39 27 18 17 7 7 17 22 25 19 10 20 31 33 34 33 31 26 21 22 25 26 25 24 26 30
8 5 3 4 5 4 4 3 3 3 1 1 1 1 1 4 6 6 4 0 2 5 7 8 10 12 14 16 17 15 16 20 21 21 22 22 22 25 27 29 33 31 31 37 35 30 23 14 21 27 23 26 32 35 34 31 32 29 27 33 29 21 21 14 10 11 5 14 26 27 27 22 18 25 31 30 33 34 31 25 22 23 24 23 22 26 33 41
6 5 5 5 4 3 2 2 2 2 2 1 1 2 2 3 5 7 6 3 3 4 6 8 10 13 15 16 18 17 16 20 22 21 22 23 24 28 29 30 33 29 28 33 34 34 27 19 24 28 24 27 33 35 34 34 32 24 25 30 17 5 8 6 5 7 9 22 35 34 25 19 20 24 26 29 33 31 28 23 23 24 22 23 28 35 47 58
5 4 3 3 2 2 2 2 2 2 2 1 1 2 4 6 5 6 7 6 4 3 5 9 11 13 16 17 19 19 18 19 21 20 21 22 23 26 27 28 30 28 28 29 29 30 22 16 24 28 22 26 33 30 27 30 25 19 24 24 14 11 9 6 6 5 10 25 36 29 15 10 16 23 27 32 32 29 28 24 24 25 24 30 40 52 63 68
3 3 2 1 1 1 2 2 2 2 2 2 2 3 5 7 6 6 7 7 5 4 5 9 12 12 15 17 19 20 18 18 20 19 20 23 23 25 27 28 30 30 29 27 25 25 19 18 24 24 20 26 33 28 24 26 20 18 25 22 18 22 15 14 17 18 18 21 21 15 11 15 24 31 35 34 30 29 27 26 27 26 31 43 56 66 68 65
2 1 0 1 1 2 2 2 2 2 2 3 4 5 6 7 7 6 6 6 7 7 5 7 11 11 13 16 18 19 17 17 19 18 20 22 22 23 25 28 30 29 28 27 24 21 21 25 26 21 22 31 32 26 23 23 21 22 26 26 26 23 15 17 23 25 22 14 12 14 16 25 30 29 28 26 25 27 26 27 29 34 48 60 65 66 62 60
1 0 1 1 2 2 2 3 2 1 1 2 4 7 8 9 8 7 7 7 8 9 8 8 11 13 15 17 18 18 16 16 18 19 20 21 20 21 24 27 28 28 27 25 23 20 22 30 31 24 27 35 32 25 22 21 23 24 25 29 28 19 15 15 14 15 13 8 14 20 22 27 26 18 20 23 25 28 28 31 40 52 62 64 62 61 60 61
1 0 1 2 2 2 2 3 3 3 3 4 6 8 9 9 8 7 6 6 7 9 11 11 13 15 16 17 17 18 16 16 18 19 19 19 19 19 22 26 27 26 26 25 24 24 24 28 30 28 31 37 30 23 23 23 23 23 24 28 25 15 15 18 12 10 9 5 11 22 27 24 18 18 26 28 28 30 34 44 55 60 60 59 60 61 61 61
2 1 2 2 3 3 2 3 2 2 4 5 6 9 9 9 8 7 6 7 8 10 12 13 14 14 15 17 17 18 17 15 18 19 18 19 19 18 20 24 25 24 25 26 25 26 24 19 22 30 37 36 29 24 25 25 25 27 27 29 27 19 18 22 17 11 10 7 8 19 21 14 17 28 30 27 30 38 47 54 57 57 58 59 61 61 62 61
3 3 3 3 4 5 4 3 2 2 4 6 6 9 10 9 9 8 8 8 9 10 12 13 14 14 15 16 16 18 17 14 16 18 17 19 19 18 20 22 23 23 24 27 27 27 26 18 21 35 42 34 27 25 22 20 23 28 29 29 30 29 28 27 21 16 13 7 6 11 12 16 29 31 25 31 42 48 52 54 54 57 60 62 62 63 63 61
4 4 5 5 5 6 5 4 5 5 6 7 8 10 10 9 9 9 8 9 10 11 12 13 14 14 15 15 16 17 16 13 15 17 17 19 19 18 20 22 22 22 24 28 29 29 29 21 24 37 42 33 26 20 12 12 20 28 31 32 32 32 31 22 14 19 22 16 13 11 11 23 32 25 27 44 52 52 53 53 56 62 64 66 67 65 62 60
6 6 6 6 6 6 6 5 6 6 7 8 9 9 9 9 9 9 8 9 10 11 12 13 14 14 15 15 15 17 17 13 14 16 17 19 19 19 20 21 21 21 24 27 29 32 31 25 28 38 38 31 26 19 14 18 29 35 35 36 36 34 31 19 11 20 29 26 24 18 14 21 27 27 40 53 53 53 56 56 61 66 68 69 67 63 62 60
6 6 7 7 6 6 6 6 5 6 7 8 9 9 9 9 8 9 9 9 10 11 12 13 14 14 14 15 15 16 17 13 12 16 18 17 19 19 20 21 20 20 23 25 27 31 28 24 33 43 40 35 30 24 24 30 36 39 37 37 37 35 32 25 21 24 23 20 20 14 11 21 32 39 50 54 55 58 58 59 64 68 69 66 63 62 61 56
6 6 7 7 6 6 7 7 6 6 7 8 9 9 8 8 8 8 9 9 10 11 12 12 13 13 14 15 14 15 16 14 12 16 17 17 18 19 20 21 19 19 23 26 27 29 24 23 31 33 29 32 31 26 31 38 38 37 37 37 35 33 29 27 31 30 17 13 18 13 12 28 43 51 55 56 57 60 59 63 66 66 64 62 60 60 56 51
5 5 6 6 6 6 7 7 7 6 7 8 8 8 8 7 7 8 9 10 10 10 11 11 12 12 13 13 14 15 16 15 13 14 17 18 18 19 21 21 18 19 24 27 28 28 25 25 26 18 11 13 17 20 30 39 40 38 37 35 33 30 25 26 33 29 17 20 25 18 22 43 57 57 57 58 59 61 65 68 67 63 60 60 59 56 52 51
4 4 5 6 7 6 5 6 8 7 7 7 7 7 7 6 6 7 8 9 10 10 10 11 12 12 12 13 13 14 15 15 14 16 17 18 19 20 22 21 18 20 24 27 29 29 28 27 25 22 19 19 23 27 28 31 36 38 38 36 32 24 21 26 28 24 24 30 32 30 38 54 61 58 56 59 62 66 69 68 65 61 60 60 56 52 51 52
3 2 3 3 5 5 4 5 7 7 7 6 6 6 6 5 6 7 7 8 9 10 10 11 12 12 12 14 14 15 16 15 15 17 18 18 19 20 22 20 18 20 25 28 29 30 30 29 27 30 32 30 30 30 28 29 34 35 35 34 29 21 23 29 26 25 29 27 30 45 54 53 56 56 54 60 67 69 69 65 62 62 62 59 54 51 53 57
2 1 2 2 2 4 4 4 6 6 6 6 5 6 6 5 6 6 7 8 9 9 10 11 12 12 13 14 14 15 16 15 15 16 17 17 18 19 21 19 17 21 26 28 30 31 30 30 32 35 37 34 29 27 30 33 34 34 32 28 23 23 30 32 29 31 32 25 34 53 55 48 51 54 55 64 68 67 66 63 63 65 63 56 52 54 59 63
3 2 2 3 2 2 3 3 4 5 6 5 5 5 5 5 5 6 7 8 9 9 9 10 11 11 12 13 14 15 15 15 16 16 17 17 18 20 21 17 18 23 27 29 32 32 30 33 34 36 41 37 28 29 35 37 35 33 26 19 20 28 32 32 33 38 40 41 46 50 49 47 48 52 59 67 67 65 65 65 66 65 57 51 53 59 64 67
4 3 2 2 2 1 2 2 3 4 5 4 4 5 5 5 5 5 6 8 9 9 9 10 11 11 12 12 13 14 15 16 17 17 18 18 18 22 21 18 20 24 26 29 31 30 32 35 34 36 42 38 32 34 40 38 32 25 17 17 25 34 34 34 39 46 49 51 50 47 47 48 48 55 65 69 67 66 66 67 67 61 51 51 58 64 67 67
6 5 3 2 2 1 1 1 2 3 4 4 4 4 5 5 5 5 6 7 8 8 8 9 10 11 12 12 13 14 15 16 17 17 19 18 19 22 22 20 22 23 25 29 30 30 33 35 36 37 38 38 37 39 43 37 21 12 14 24 31 33 34 38 44 48 47 49 51 50 48 48 54 64 70 69 66 63 63 65 64 55 50 55 63 67 67 66
6 6 5 4 3 2 2 1 1 2 3 4 5 5 4 5 4 5 6 7 8 8 8 9 10 11 11 12 13 14 15 16 16 17 18 18 19 22 22 22 22 23 26 28 29 31 33 36 39 36 34 39 40 41 44 33 12 7 21 32 32 31 34 42 49 50 47 49 50 45 44 52 63 69 70 68 63 59 61 66 61 52 53 61 65 67 66 65
Wind_Direction
147 163 170 153 154 170 180 160 103 99 70 38 25 23 26 27 26 28 27 24 25 25 26 30 32 30 28 25 28 33 40 43 39 38 35 29 28 25 19 12 4 3 2 2 2 358 351 338 324 312 305 300 295 289 285 283 279 277 271 270 272 273 275 278 279 279 279 280 279 279 278 277 278 280 281 281 282 283 281 280 280 280 278 275 270 266 264 264
147 152 154 154 159 158 130 92 92 74 49 34 25 23 24 24 25 22 19 20 24 29 34 35 37 42 45 44 43 41 40 40 34 34 26 19 23 20 16 12 6 5 3 4 5 3 357 348 333 314 306 299 293 288 285 286 284 281 277 275 277 278 280 281 281 282 283 282 280 279 278 278 280 281 281 281 282 281 281 283 283 282 280 276 271 267 265 264
166 166 165 167 157 125 94 92 83 60 42 31 25 22 23 24 24 22 21 26 36 46 49 49 52 57 60 61 62 50 38 34 32 30 18 14 24 24 21 16 14 13 6 4 6 5 358 349 339 324 313 303 297 293 288 289 288 285 283 282 283 283 282 281 281 282 282 282 281 280 279 279 281 280 280 282 283 283 285 287 285 283 280 276 273 269 266 265
169 167 164 162 142 105 94 91 72 54 40 30 24 22 26 29 31 34 39 48 57 62 65 70 69 69 67 63 63 52 37 33 31 27 21 30 40 37 31 25 24 19 11 6 4 5 357 347 342 334 321 308 302 296 290 289 289 286 284 284 285 285 282 280 278 278 278 280 281 281 280 280 281 281 283 284 285 288 290 287 285 285 281 278 275 270 267 265
158 155 155 149 124 103 98 80 60 48 36 28 25 29 39 44 49 55 62 68 71 74 79 84 83 80 69 59 56 53 45 38 38 38 40 46 45 40 33 27 24 18 11 3 360 360 353 345 339 333 321 312 304 297 290 287 285 285 284 283 284 284 281 279 277 276 277 278 279 279 281 283 283 283 284 284 287 293 292 290 289 286 283 280 275 270 266 261
150 151 150 135 111 102 91 69 52 41 32 30 35 44 55 62 68 71 75 77 77 79 81 83 81 77 66 57 58 62 61 57 51 47 46 46 43 41 34 25 19 11 4 357 356 355 349 342 335 331 323 315 308 300 294 289 286 286 288 288 289 287 284 283 282 282 282 281 282 284 285 286 285 285 285 286 291 294 293 293 290 286 286 283 276 271 267 262
148 149 142 120 104 95 79 59 45 35 33 41 52 61 69 75 79 81 83 81 80 79 76 74 70 67 68 68 69 70 66 61 55 47 45 44 42 39 29 22 15 6 0 355 352 349 346 339 333 331 325 319 312 305 301 299 296 294 297 297 295 293 292 292 291 291 290 289 290 289 289 288 287 286 286 288 293 296 296 294 288 287 290 287 279 273 271 267
147 143 132 113 94 84 71 52 39 34 43 61 73 78 80 84 88 90 88 85 82 79 75 71 66 66 74 78 75 70 63 57 50 42 43 40 37 32 22 17 12 5 360 354 351 348 343 337 333 328 323 318 312 308 306 306 303 301 304 303 300 298 297 297 296 296 294 294 294 292 291 289 288 287 287 293 298 298 297 293 291 292 294 292 286 280 277 273
140 133 123 103 82 77 66 48 40 45 65 82 88 89 89 91 94 94 90 85 79 75 73 71 72 71 72 73 69 65 59 50 40 36 38 32 26 22 17 14 7 1 356 353 350 347 342 336 332 326 320 316 313 309 308 308 306 306 307 304 302 301 299 299 299 298 296 297 296 295 293 290 289 288 293 302 303 299 297 295 296 296 298 297 293 288 283 277
130 122 109 87 77 78 66 52 52 69 88 95 96 96 96 96 94 91 88 84 78 73 72 72 73 71 67 65 60 57 49 37 31 30 30 24 18 16 14 8 360 354 350 348 344 340 337 331 326 322 318 315 314 311 309 308 305 306 305 302 303 302 301 301 301 300 300 301 300 298 295 292 291 291 300 309 304 301 301 300 299 299 302 302 297 292 285 278
122 111 95 83 84 82 67 64 74 91 101 103 105 105 102 99 94 90 84 81 80 77 75 75 75 74 68 59 52 48 40 30 27 26 24 17 12 13 8 360 355 350 345 343 340 336 332 328 324 322 319 317 316 313 309 307 305 306 303 302 303 301 301 302 303 303 303 304 303 300 296 293 291 294 306 309 303 304 305 302 300 301 304 303 298 291 283 275
119 103 88 88 92 81 72 80 92 102 106 107 109 111 106 99 93 91 86 87 90 86 82 78 73 68 59 53 49 43 34 27 21 19 17 9 7 7 0 354 351 346 342 340 339 338 333 329 327 323 319 316 316 313 309 308 307 306 304 302 301 300 300 302 305 306 306 306 304 300 295 292 293 301 309 306 305 309 307 305 303 303 305 302 296 288 278 270
121 100 91 97 93 82 84 93 104 108 107 105 105 107 102 90 86 90 92 95 93 86 78 69 60 54 50 44 40 33 24 22 15 9 7 4 1 358 355 351 347 345 343 339 339 339 333 328 327 324 319 316 317 314 311 311 308 306 304 302 302 301 301 305 309 309 309 307 305 301 292 293 300 308 310 308 311 312 309 308 307 306 305 301 294 284 275 267
125 101 95 102 90 89 99 107 114 111 107 106 100 98 94 86 84 85 86 87 81 73 67 61 53 47 41 28 26 23 15 15 8 4 4 1 356 353 352 349 347 347 345 341 340 340 335 331 330 327 322 319 320 317 314 312 308 307 305 303 304 303 303 308 309 309 310 308 307 302 291 297 307 312 313 312 312 310 308 308 307 306 304 300 293 282 272 263
126 101 103 106 98 106 114 118 116 108 110 109 94 88 91 89 82 77 76 73 69 64 60 57 51 45 38 21 22 17 11 12 6 3 1 357 355 352 350 349 349 350 348 344 341 341 340 337 334 330 326 326 325 320 316 313 311 311 308 306 306 303 303 308 310 311 313 312 312 306 295 301 307 311 316 314 310 308 307 307 306 305 302 298 291 280 268 259
124 122 133 121 116 122 123 123 116 111 114 107 93 87 87 83 75 70 66 62 63 60 57 56 52 50 43 25 21 14 9 7 2 1 358 355 356 352 349 349 349 350 350 346 342 343 342 339 336 331 330 329 326 320 317 316 315 315 311 309 308 308 308 311 313 316 316 314 312 307 301 302 305 311 316 313 310 308 306 305 305 303 300 295 287 276 264 258
140 152 149 129 128 128 124 121 120 121 116 105 96 88 83 76 69 65 61 62 63 61 60 51 43 43 33 20 17 10 3 2 360 358 358 1 360 354 351 349 349 351 349 344 342 343 341 340 335 332 334 333 328 323 321 321 320 319 316 312 311 311 311 312 315 318 316 313 310 307 303 302 305 311 315 314 312 308 306 306 304 300 296 291 283 272 262 258
157 157 144 136 132 124 117 113 119 120 110 100 94 88 80 73 72 70 67 67 64 66 60 47 41 35 24 17 16 14 10 5 360 358 6 11 6 358 353 349 347 348 347 345 343 343 343 342 337 336 338 334 329 327 326 324 320 319 317 314 313 312 311 313 317 320 316 312 309 307 305 305 308 311 315 317 313 308 306 306 303 299 295 288 278 267 259 258
159 150 141 137 129 122 117 114 116 113 105 98 92 90 85 80 79 76 72 67 66 67 55 46 44 35 25 18 22 23 15 9 7 8 9 9 4 358 355 350 348 348 349 348 345 345 345 343 342 341 339 335 334 334 331 326 320 318 316 315 314 313 312 315 318 320 318 313 311 310 311 310 310 314 319 319 312 308 309 308 305 303 297 287 273 263 257 257
151 145 140 134 129 127 120 113 112 109 106 101 96 94 89 84 77 68 66 63 65 60 51 44 38 32 25 20 27 24 14 15 16 12 6 1 358 355 353 351 351 350 349 349 348 347 346 345 344 342 341 340 338 336 333 328 322 320 318 316 315 313 314 318 320 320 321 316 313 315 315 311 312 318 321 319 314 314 314 310 308 306 300 291 275 262 258 256
144 141 136 129 128 126 119 112 109 108 108 106 101 93 86 84 75 65 61 59 59 52 46 40 35 32 26 23 29 20 15 14 8 4 1 358 354 352 353 352 351 351 350 352 352 350 348 347 344 342 342 340 337 334 332 328 325 322 321 318 316 317 317 318 320 321 323 318 313 316 314 310 314 319 320 321 320 319 316 311 310 308 303 294 279 264 258 255
141 140 133 128 127 123 119 115 112 109 105 104 101 95 90 88 81 71 58 53 53 46 41 37 32 30 27 26 24 22 22 13 358 358 357 356 354 354 357 354 352 354 354 355 354 353 353 348 345 343 341 340 337 334 331 329 327 325 324 321 318 322 322 319 322 324 323 318 314 315 312 312 318 322 324 329 322 320 318 315 314 310 305 296 281 266 259 255
141 140 134 130 128 123 119 113 109 104 100 99 99 99 98 88 79 67 53 48 48 45 42 37 33 31 29 25 18 19 21 12 5 2 360 2 1 360 360 358 358 359 359 359 357 357 356 348 344 343 341 341 339 336 332 328 328 327 326 323 320 325 326 320 322 323 320 316 313 314 313 315 321 327 329 327 322 322 321 317 316 311 305 296 282 267 258 254
143 142 137 135 131 124 118 108 103 102 100 99 97 100 95 68 57 52 44 41 41 40 38 33 32 31 28 24 18 11 11 12 10 7 9 9 5 4 2 3 5 3 2 2 359 357 353 347 345 344 342 343 342 338 333 328 327 328 329 326 322 325 325 319 320 320 317 316 315 318 318 315 318 324 322 322 321 321 320 318 317 312 305 293 279 265 255 251
145 144 143 141 135 129 118 103 97 96 88 80 64 350 292 284 302 4 23 31 33 32 29 27 28 26 23 21 17 13 12 12 10 10 14 11 7 6 2 4 5 2 3 2 359 354 350 349 346 347 347 346 345 339 335 332 328 329 334 330 324 324 323 319 321 320 316 316 316 319 321 310 308 312 316 319 321 320 321 320 318 315 304 290 276 261 251 247
145 146 146 142 135 127 112 92 81 70 45 4 348 354 357 325 312 333 328 13 23 24 24 22 24 23 20 18 17 20 15 10 10 12 13 10 10 6 1 2 0 359 3 3 0 354 351 351 349 352 353 347 346 342 340 337 329 329 333 330 325 323 321 320 322 317 310 306 305 309 305 289 301 311 317 320 323 322 323 323 321 315 302 286 267 253 244 241
147 147 143 139 130 114 91 66 56 36 8 351 340 347 360 359 360 347 313 360 8 13 20 19 20 20 18 19 19 22 17 9 10 11 11 12 11 6 2 360 356 358 4 4 2 357 352 353 353 357 354 348 349 348 343 338 329 328 331 327 323 323 322 322 321 312 304 302 303 308 303 278 292 312 324 322 324 326 326 326 321 311 295 274 254 243 237 234
152 150 146 135 114 87 59 38 22 353 351 11 355 358 351 353 11 10 77 85 6 7 14 15 18 17 15 18 19 22 19 11 9 9 11 12 10 7 3 359 356 358 4 6 3 357 354 356 358 357 353 351 353 349 343 337 330 330 330 326 325 325 324 324 321 313 307 302 304 317 322 288 291 314 326 323 325 329 328 324 316 301 280 257 242 235 233 236
162 161 154 125 84 51 26 4 341 331 346 328 353 17 7 350 358 60 86 82 11 9 12 13 17 15 13 15 18 21 18 14 12 10 9 9 7 6 3 0 358 356 0 5 2 356 356 359 0 355 354 355 353 348 344 338 334 333 331 327 328 329 330 331 327 323 318 298 296 331 345 322 306 314 323 326 325 327 325 318 305 285 261 245 238 234 237 249
175 177 166 98 25 9 358 345 336 328 317 317 353 25 18 16 147 99 79 47 5 13 15 17 19 21 18 16 18 22 19 17 17 13 10 8 5 2 360 359 356 354 357 2 2 2 1 3 1 356 357 356 352 351 346 341 339 338 335 332 331 333 337 337 333 336 330 295 301 334 333 325 305 310 317 320 321 324 322 314 295 272 253 243 242 244 256 274
187 191 201 315 328 336 337 340 347 340 321 333 355 350 19 37 71 89 83 4 5 15 18 22 22 25 26 23 23 22 18 17 16 13 7 2 358 355 359 360 358 359 360 0 4 8 8 6 1 359 1 358 352 349 346 344 346 342 340 342 338 336 341 339 332 342 342 283 312 321 322 320 290 296 309 313 317 320 318 309 285 263 252 248 253 267 284 299
195 210 254 291 307 317 326 343 352 354 360 25 34 22 34 54 61 67 79 31 1 12 18 26 25 27 27 25 23 20 18 16 12 10 4 0 357 359 7 9 6 5 0 357 358 2 7 5 360 0 1 359 352 347 345 346 347 344 345 351 350 342 343 339 328 335 279 286 310 316 318 311 284 292 306 312 316 316 311 299 279 261 252 260 278 293 304 312
208 234 263 282 299 315 335 354 358 14 23 17 48 50 70 84 69 63 70 64 32 26 28 27 25 27 26 23 22 21 20 16 11 9 6 3 2 6 10 9 8 8 360 354 353 354 1 3 358 358 359 359 354 348 345 341 344 348 351 355 360 355 336 320 311 320 293 300 309 313 311 299 291 301 310 313 313 311 303 292 275 262 265 287 303 310 315 318
226 247 267 281 299 331 351 349 358 11 9 17 94 87 89 96 93 81 72 61 52 50 37 30 27 26 22 20 21 19 18 15 11 9 6 4 4 6 6 5 6 7 1 359 356 352 352 352 352 353 356 357 353 350 344 338 342 349 352 355 356 343 326 282 290 300 294 302 306 310 307 293 309 315 315 314 312 306 299 289 275 271 288 307 314 319 321 322
239 248 265 293 317 355 355 348 351 2 19 61 102 109 107 103 105 99 79 62 56 53 41 35 32 27 22 20 20 18 15 12 10 8 6 5 6 5 4 3 2 2 3 2 357 351 339 334 347 350 352 354 351 349 345 342 346 347 348 352 344 336 317 287 294 294 296 300 303 312 309 308 317 316 314 313 308 303 297 285 279 287 309 318 320 323 323 323
236 225 269 344 360 8 14 12 2 13 61 90 100 106 116 117 116 105 84 69 56 49 47 38 31 30 27 23 21 18 13 9 8 8 8 7 6 3 2 2 360 359 4 2 357 353 333 331 348 354 351 353 351 348 348 349 349 346 347 347 340 336 324 304 303 306 312 306 302 313 310 313 318 315 313 311 305 303 295 288 294 310 321 321 320 321 321 323
184 149 36 41 39 37 37 34 29 48 108 119 114 109 114 115 112 106 92 76 59 50 49 42 31 27 25 23 21 16 12 10 8 7 10 9 4 1 360 0 358 356 360 1 358 353 332 331 347 355 350 351 350 346 349 351 353 351 347 344 341 338 332 323 310 312 321 297 296 309 311 317 320 319 322 319 311 308 306 309 316 321 321 319 319 321 323 326
121 52 50 57 53 53 64 69 70 86 102 114 124 119 115 114 109 109 99 78 63 53 45 43 35 25 22 20 16 13 10 10 8 7 10 10 3 359 359 358 356 354 356 358 356 353 340 331 340 348 348 349 348 346 346 349 355 354 346 344 346 336 323 327 318 306 315 302 298 307 312 318 321 323 325 321 318 321 322 323 322 321 321 323 325 327 328 328
79 61 71 66 64 68 89 105 99 104 106 108 120 119 115 116 113 108 96 76 63 51 44 42 34 25 21 18 13 10 9 7 8 9 9 8 3 358 357 356 356 354 354 355 354 354 348 329 326 338 344 346 349 348 348 348 349 349 347 347 346 337 323 322 316 303 307 310 305 309 312 322 328 324 323 326 330 329 326 324 323 324 327 329 331 330 330 328
77 76 83 80 81 83 89 108 117 129 125 120 122 119 115 116 111 100 88 72 59 50 44 38 31 26 20 16 13 10 8 6 7 8 6 4 2 357 356 356 356 355 353 353 352 351 350 329 312 331 342 348 351 349 346 343 341 343 345 346 344 341 337 330 321 315 313 303 306 313 307 315 323 323 326 335 335 329 325 326 327 329 331 332 331 330 328 326
84 84 92 94 91 91 91 101 110 111 118 122 120 117 115 111 102 93 83 67 57 49 42 34 29 24 18 15 13 9 9 6 5 7 3 360 0 357 354 354 354 356 353 352 352 350 347 333 315 328 340 346 348 347 340 334 340 343 343 344 344 341 341 339 323 318 317 306 299 297 290 311 320 323 330 334 331 327 326 326 328 330 330 330 328 327 326 326
93 93 98 98 96 103 100 99 107 110 114 117 116 115 111 105 96 86 77 64 56 47 39 32 24 20 16 13 12 10 9 5 3 3 360 358 359 356 354 354 353 354 353 353 353 350 345 339 328 329 336 344 348 350 347 343 343 343 343 344 342 339 340 336 308 309 312 304 300 291 283 309 321 326 329 329 327 324 322 323 325 328 328 328 328 328 329 329
102 103 104 100 100 112 106 96 100 110 114 113 111 110 104 98 92 80 70 61 53 45 38 30 21 16 13 10 11 10 7 5 1 359 358 357 357 355 355 354 350 349 352 353 353 350 348 345 337 333 337 344 346 345 344 344 343 341 341 342 339 335 332 325 315 314 306 299 310 306 287 309 320 325 326 325 323 321 321 324 328 329 328 329 329 330 330 329
105 110 110 107 110 112 106 99 96 103 110 109 106 104 96 90 86 76 67 57 50 44 35 28 20 15 11 9 9 7 6 6 1 357 357 355 355 355 354 351 347 345 349 352 352 351 352 350 343 340 341 344 345 342 338 337 337 335 336 338 334 328 324 323 327 327 313 301 321 318 289 307 319 324 324 322 321 322 325 329 330 330 330 331 331 330 329 326
105 113 116 120 116 103 99 100 97 94 95 96 98 97 90 84 78 70 63 53 45 41 33 25 19 14 11 9 6 5 6 5 2 358 356 354 354 354 353 350 344 341 346 350 350 350 351 351 350 347 340 331 327 324 326 327 327 328 332 333 329 326 327 330 331 329 320 313 314 304 297 311 322 326 323 322 325 328 330 331 331 332 332 332 332 329 327 324
103 111 119 123 114 104 98 95 94 90 81 81 86 87 84 81 71 63 56 47 40 35 29 22 15 12 10 8 7 6 5 4 2 358 355 354 353 352 352 348 340 339 345 347 349 350 349 349 349 341 327 316 312 316 325 326 322 325 332 329 324 324 328 332 332 328 324 319 315 316 318 318 323 325 323 326 330 332 331 331 332 334 333 333 332 328 325 322
99 113 117 116 112 113 111 91 88 86 76 72 76 77 77 73 63 57 48 40 35 29 23 18 12 8 7 6 6 6 4 3 2 358 355 353 352 351 350 346 339 338 343 347 349 349 346 345 345 337 329 329 328 327 332 331 324 326 327 321 319 322 328 334 337 336 335 327 316 323 326 321 321 324 327 331 333 332 331 332 334 334 335 335 332 326 323 321
76 110 112 109 121 124 113 88 80 80 75 68 64 66 69 65 58 52 43 36 29 23 20 14 9 5 4 5 4 3 2 0 360 358 354 351 350 351 349 345 339 338 343 347 347 346 345 343 341 336 332 336 339 335 335 334 330 327 321 313 315 321 329 336 339 340 341 328 314 322 325 320 321 327 331 332 332 330 331 334 335 335 337 336 330 324 323 324
60 72 90 92 104 119 111 89 74 73 71 62 52 52 55 56 52 43 36 31 23 19 16 10 5 2 2 3 2 1 360 357 358 358 354 351 350 350 350 347 342 340 342 345 343 344 346 342 340 336 333 339 346 340 338 338 332 325 316 308 316 325 332 338 339 340 338 327 322 324 322 321 326 331 331 330 330 331 333 335 336 338 339 333 326 325 327 330
49 44 60 77 82 93 105 92 69 59 60 52 42 42 41 44 45 35 30 24 16 15 11 5 1 358 359 1 1 1 0 358 358 356 355 353 349 349 351 347 342 339 340 341 341 343 344 341 342 337 332 341 350 342 339 341 333 319 305 307 322 329 333 336 337 338 335 329 328 327 323 327 332 331 329 330 332 333 335 336 339 341 338 329 326 329 332 333
46 33 28 49 67 52 48 67 59 46 44 39 31 31 30 33 37 30 25 17 10 8 4 360 358 354 356 359 359 1 1 359 359 356 354 352 349 349 348 343 341 337 336 339 339 341 343 341 343 340 331 337 347 341 340 343 333 303 313 325 330 331 331 332 336 339 335 330 330 330 329 331 330 329 330 333 334 334 335 337 341 341 335 329 330 334 335 335
41 33 25 27 32 26 2 357 9 17 21 22 20 19 17 20 26 24 20 12 4 2 358 355 355 353 355 358 358 1 1 360 360 357 354 351 347 347 345 340 340 336 335 339 339 340 343 342 344 344 330 332 343 341 339 347 347 325 335 330 324 325 328 333 337 339 336 333 331 330 328 328 328 330 332 334 334 334 335 339 342 340 333 332 334 336 336 336